Location: Saint-Usage
(47.1052°N, 5.2587°E)
Time: 02:38:21
(UTC+02:00)

Nauka - Pass Details

Date: 29 September 2021
Orbit: 417 x 423 km, 51.6° (Epoch: 24 October)

Event Time Altitude Azimuth Distance (km) Brightness Sun altitude
Rises 20:12:04 0° 290° (WNW) 2,365 ? -9.3°
Reaches altitude 10° 20:14:15 10° 298° (WNW) 1,501 ? -9.7°
Maximum altitude 20:17:28 41° 10° (N) 621 ? -10.2°
Enters shadow 20:19:57 15° 78° (ENE) 1,227 ? -10.6°
